Retour au catalogue

STRELA 3

ActifMilitairePO
NORAD 37153·PAYLOAD·🇷🇺 Russia

Lancé Sep 8, 2010 depuis Plesetsk Cosmodrome

Loading…

Prochains Passages (prochaines 24 heures)

TLE

FraisSource: Space-Track

Époque: Sep 14, 2026, 13:41 UTC

1 37153U 10043B   26257.57019412 -.00000037  00000-0 -34980-3 0  9997
2 37153  82.4617  22.7216 0006802 245.5108 114.5262 12.40793679725452

Suivez STRELA 3 en temps réel avec AllMySat

Download on the App Store